This is the latest recevied weather packets stored in our database for station/object K4IR. If no packets are shown the sender has not sent any weather packets the latest 10 day(s).
| Time | Temp. | Humidity | Pressure | Rain* | Wind** | Luminosity | Snow |
|---|---|---|---|---|---|---|---|
| 1787930480 | 26.67° C | 89% | 1018.4 hPa | 0 mm | - | 141 W/m² | - |
| 1787929880 | 26.11° C | 92% | 1018.2 hPa | 0 mm | - | 182 W/m² | - |
| 1787929274 | 25.56° C | 96% | 1018.4 hPa | 0 mm | - | 224 W/m² | - |
| 1787928673 | 25° C | 98% | 1018.2 hPa | 0 mm | - | 170 W/m² | - |
| 1787928070 | 25° C | 99% | 1018.3 hPa | 0 mm | - | 141 W/m² | - |
| 1787927470 | 25° C | 99% | 1018.4 hPa | 0 mm | - | 136 W/m² | - |
| 1787926866 | 25° C | 99% | 1018.2 hPa | 0 mm | - | 153 W/m² | - |
| 1787926265 | 24.44° C | 99% | 1018.2 hPa | 0 mm | - | 150 W/m² | - |
| 1787925660 | 24.44° C | 99% | 1017.9 hPa | 0 mm | - | 145 W/m² | - |
| 1787925060 | 24.44° C | 99% | 1017.6 hPa | 0 mm | - | 136 W/m² | - |
| 1787924460 | 24.44° C | 99% | 1017.5 hPa | 0 mm | - | 132 W/m² | - |
| 1787923855 | 24.44° C | 99% | 1017.5 hPa | 0 mm | - | 105 W/m² | - |
| 1787923252 | 24.44° C | 99% | 1017.6 hPa | 0 mm | - | 109 W/m² | - |
| 1787922646 | 24.44° C | 99% | 1017.5 hPa | 0 mm | - | 92 W/m² | - |
| 1787922043 | 24.44° C | 99% | 1017.4 hPa | 0 mm | - | 80 W/m² | - |
| 1787921443 | 24.44° C | 99% | 1017.5 hPa | 0 mm | - | 79 W/m² | - |
| 1787920839 | 24.44° C | 99% | 1017.5 hPa | 0 mm | - | 61 W/m² | - |
| 1787920239 | 23.89° C | 99% | 1017.3 hPa | 0 mm | - | 72 W/m² | - |
| 1787919637 | 23.89° C | 99% | 1017.3 hPa | 0 mm | - | 71 W/m² | - |
| 1787919034 | 23.89° C | 99% | 1017.2 hPa | 0 mm | - | 79 W/m² | - |
| 1787918434 | 23.33° C | 99% | 1017.3 hPa | 0 mm | - | 67 W/m² | - |
| 1787917833 | 23.33° C | 99% | 1017.3 hPa | 0 mm | - | 48 W/m² | - |
| 1787917231 | 22.78° C | 99% | 1017.5 hPa | 0 mm | - | 26 W/m² | - |
| 1787916631 | 22.78° C | 99% | 1017.2 hPa | 0 mm | - | 16 W/m² | - |
| 1787916027 | 22.78° C | 99% | 1017 hPa | 0 mm | - | 11 W/m² | - |
* Rain latest hour (hover to see other rain measurements)
** Current wind speed in m/s (hover to see current wind gust speed)